Year,Month,Day,Hour,Minute,Value (Times are PST for temperature in C)
2012,08,31,00,00,11.50
2012,08,31,00,01,11.40
2012,08,31,00,02,11.40
2012,08,31,00,03,11.40
2012,08,31,00,04,11.30
2012,08,31,00,05,11.30
2012,08,31,00,06,11.30
2012,08,31,00,07,11.20
2012,08,31,00,08,11.20
2012,08,31,00,09,11.20
2012,08,31,00,10,11.20
2012,08,31,00,11,11.10
2012,08,31,00,12,11.10
2012,08,31,00,13,11.00
2012,08,31,00,14,11.00
2012,08,31,00,15,10.90
2012,08,31,00,16,10.90
2012,08,31,00,17,10.90
2012,08,31,00,18,10.90
2012,08,31,00,19,10.90
2012,08,31,00,20,10.90
2012,08,31,00,21,10.80
2012,08,31,00,22,10.80
2012,08,31,00,23,10.80
2012,08,31,00,24,10.80
2012,08,31,00,25,10.70
2012,08,31,00,26,10.70
2012,08,31,00,27,10.70
2012,08,31,00,28,10.70
2012,08,31,00,29,10.60
2012,08,31,00,30,10.60
2012,08,31,00,31,10.60
2012,08,31,00,32,10.60
2012,08,31,00,33,10.60
2012,08,31,00,34,10.50
2012,08,31,00,35,10.50
2012,08,31,00,36,10.50
2012,08,31,00,37,10.50
2012,08,31,00,38,10.50
2012,08,31,00,39,10.60
2012,08,31,00,40,10.60
2012,08,31,00,41,10.60
2012,08,31,00,42,10.60
2012,08,31,00,43,10.60
2012,08,31,00,44,10.60
2012,08,31,00,45,10.60
2012,08,31,00,46,10.60
2012,08,31,00,47,10.60
2012,08,31,00,48,10.60
2012,08,31,00,49,10.70
2012,08,31,00,50,10.70
2012,08,31,00,51,10.70
2012,08,31,00,52,10.70
2012,08,31,00,53,10.70
2012,08,31,00,54,10.70
2012,08,31,00,55,10.70
2012,08,31,00,56,10.70
2012,08,31,00,57,10.70
2012,08,31,00,58,10.70
2012,08,31,00,59,10.70
2012,08,31,01,00,10.80
2012,08,31,01,01,10.80
2012,08,31,01,02,10.80
2012,08,31,01,03,10.80
2012,08,31,01,04,10.80
2012,08,31,01,05,10.80
2012,08,31,01,06,10.80
2012,08,31,01,07,10.80
2012,08,31,01,08,10.80
2012,08,31,01,09,10.80
2012,08,31,01,10,10.80
2012,08,31,01,11,10.80
2012,08,31,01,12,10.80
2012,08,31,01,13,10.80
2012,08,31,01,14,10.80
2012,08,31,01,15,10.80
2012,08,31,01,16,10.80
2012,08,31,01,17,10.90
2012,08,31,01,18,10.90
2012,08,31,01,19,10.90
2012,08,31,01,20,10.80
2012,08,31,01,21,10.80
2012,08,31,01,22,10.80
2012,08,31,01,23,10.90
2012,08,31,01,24,10.90
2012,08,31,01,25,10.90
2012,08,31,01,26,10.90
2012,08,31,01,27,10.90
2012,08,31,01,28,10.90
2012,08,31,01,29,10.90
2012,08,31,01,30,10.90
2012,08,31,01,31,10.90
2012,08,31,01,32,10.90
2012,08,31,01,33,10.90
2012,08,31,01,34,10.90
2012,08,31,01,35,10.90
2012,08,31,01,36,10.90
2012,08,31,01,37,10.90
2012,08,31,01,38,10.90
2012,08,31,01,39,10.90
2012,08,31,01,40,10.90
2012,08,31,01,41,10.90
2012,08,31,01,42,10.90
2012,08,31,01,43,10.90
2012,08,31,01,44,10.90
2012,08,31,01,45,10.80
2012,08,31,01,46,10.80
2012,08,31,01,47,10.80
2012,08,31,01,48,10.80
2012,08,31,01,49,10.80
2012,08,31,01,50,10.80
2012,08,31,01,51,10.80
2012,08,31,01,52,10.70
2012,08,31,01,53,10.70
2012,08,31,01,54,10.70
2012,08,31,01,55,10.70
2012,08,31,01,56,10.70
2012,08,31,01,57,10.70
2012,08,31,01,58,10.70
2012,08,31,01,59,10.60
2012,08,31,02,00,10.60
2012,08,31,02,01,10.60
2012,08,31,02,02,10.60
2012,08,31,02,03,10.60
2012,08,31,02,04,10.60
2012,08,31,02,05,10.60
2012,08,31,02,06,10.60
2012,08,31,02,07,10.60
2012,08,31,02,08,10.60
2012,08,31,02,09,10.60
2012,08,31,02,10,10.50
2012,08,31,02,11,10.50
2012,08,31,02,12,10.60
2012,08,31,02,13,10.60
2012,08,31,02,14,10.60
2012,08,31,02,15,10.60
2012,08,31,02,16,10.60
2012,08,31,02,17,10.60
2012,08,31,02,18,10.60
2012,08,31,02,19,10.60
2012,08,31,02,20,10.60
2012,08,31,02,21,10.60
2012,08,31,02,22,10.60
2012,08,31,02,23,10.60
2012,08,31,02,24,10.60
2012,08,31,02,25,10.60
2012,08,31,02,26,10.60
2012,08,31,02,27,10.60
2012,08,31,02,28,10.60
2012,08,31,02,29,10.60
2012,08,31,02,30,10.50
2012,08,31,02,31,10.40
2012,08,31,02,32,10.40
2012,08,31,02,33,10.40
2012,08,31,02,34,10.40
2012,08,31,02,35,10.30
2012,08,31,02,36,10.30
2012,08,31,02,37,10.30
2012,08,31,02,38,10.20
2012,08,31,02,39,10.20
2012,08,31,02,40,10.20
2012,08,31,02,41,10.30
2012,08,31,02,42,10.30
2012,08,31,02,43,10.30
2012,08,31,02,44,10.30
2012,08,31,02,45,10.40
2012,08,31,02,46,10.40
2012,08,31,02,47,10.40
2012,08,31,02,48,10.40
2012,08,31,02,49,10.40
2012,08,31,02,50,10.40
2012,08,31,02,51,10.40
2012,08,31,02,52,10.40
2012,08,31,02,53,10.40
2012,08,31,02,54,10.50
2012,08,31,02,55,10.50
2012,08,31,02,56,10.50
2012,08,31,02,57,10.50
2012,08,31,02,58,10.50
2012,08,31,02,59,10.50
2012,08,31,03,00,10.50
2012,08,31,03,01,10.50
2012,08,31,03,02,10.50
2012,08,31,03,03,10.50
2012,08,31,03,04,10.50
2012,08,31,03,05,10.50
2012,08,31,03,06,10.40
2012,08,31,03,07,10.40
2012,08,31,03,08,10.40
2012,08,31,03,09,10.40
2012,08,31,03,10,10.40
2012,08,31,03,11,10.40
2012,08,31,03,12,10.40
2012,08,31,03,13,10.40
2012,08,31,03,14,10.40
2012,08,31,03,15,10.40
2012,08,31,03,16,10.40
2012,08,31,03,17,10.40
2012,08,31,03,18,10.30
2012,08,31,03,19,10.30
2012,08,31,03,20,10.30
2012,08,31,03,21,10.30
2012,08,31,03,22,10.30
2012,08,31,03,23,10.20
2012,08,31,03,24,10.20
2012,08,31,03,25,10.20
2012,08,31,03,26,10.20
2012,08,31,03,27,10.10
2012,08,31,03,28,10.10
2012,08,31,03,29,10.10
2012,08,31,03,30,10.10
2012,08,31,03,31,10.00
2012,08,31,03,32,10.00
2012,08,31,03,33,10.00
2012,08,31,03,34,9.90
2012,08,31,03,35,9.90
2012,08,31,03,36,9.90
2012,08,31,03,37,9.80
2012,08,31,03,38,9.80
2012,08,31,03,39,9.80
2012,08,31,03,40,9.80
2012,08,31,03,41,9.80
2012,08,31,03,42,9.70
2012,08,31,03,43,9.70
2012,08,31,03,44,9.70
2012,08,31,03,45,9.70
2012,08,31,03,46,9.60
2012,08,31,03,47,9.60
2012,08,31,03,48,9.60
2012,08,31,03,49,9.60
2012,08,31,03,50,9.50
2012,08,31,03,51,9.50
2012,08,31,03,52,9.50
2012,08,31,03,53,9.40
2012,08,31,03,54,9.40
2012,08,31,03,55,9.40
2012,08,31,03,56,9.40
2012,08,31,03,57,9.40
2012,08,31,03,58,9.30
2012,08,31,03,59,9.30
2012,08,31,04,00,9.30
2012,08,31,04,01,9.30
2012,08,31,04,02,9.30
2012,08,31,04,03,9.30
2012,08,31,04,04,9.30
2012,08,31,04,05,9.30
2012,08,31,04,06,9.20
2012,08,31,04,07,9.20
2012,08,31,04,08,9.20
2012,08,31,04,09,9.20
2012,08,31,04,10,9.20
2012,08,31,04,11,9.20
2012,08,31,04,12,9.20
2012,08,31,04,13,9.10
2012,08,31,04,14,9.10
2012,08,31,04,15,9.10
2012,08,31,04,16,9.10
2012,08,31,04,17,9.10
2012,08,31,04,18,9.10
2012,08,31,04,19,9.10
2012,08,31,04,20,9.00
2012,08,31,04,21,9.00
2012,08,31,04,22,9.00
2012,08,31,04,23,8.90
2012,08,31,04,24,8.90
2012,08,31,04,25,8.90
2012,08,31,04,26,8.90
2012,08,31,04,27,8.90
2012,08,31,04,28,8.90
2012,08,31,04,29,8.90
2012,08,31,04,30,8.90
2012,08,31,04,31,8.90
2012,08,31,04,32,8.90
2012,08,31,04,33,8.90
2012,08,31,04,34,8.90
2012,08,31,04,35,8.90
2012,08,31,04,36,8.90
2012,08,31,04,37,8.90
2012,08,31,04,38,8.90
2012,08,31,04,39,8.90
2012,08,31,04,40,8.90
2012,08,31,04,41,8.90
2012,08,31,04,42,8.90
2012,08,31,04,43,8.90
2012,08,31,04,44,8.90
2012,08,31,04,45,8.90
2012,08,31,04,46,9.00
2012,08,31,04,47,9.00
2012,08,31,04,48,9.00
2012,08,31,04,49,9.10
2012,08,31,04,50,9.10
2012,08,31,04,51,9.10
2012,08,31,04,52,9.10
2012,08,31,04,53,9.10
2012,08,31,04,54,9.10
2012,08,31,04,55,9.10
2012,08,31,04,56,9.10
2012,08,31,04,57,9.00
2012,08,31,04,58,9.00
2012,08,31,04,59,9.00
2012,08,31,05,00,8.90
2012,08,31,05,01,8.90
2012,08,31,05,02,8.90
2012,08,31,05,03,8.90
2012,08,31,05,04,8.80
2012,08,31,05,05,8.80
2012,08,31,05,06,8.80
2012,08,31,05,07,8.80
2012,08,31,05,08,8.70
2012,08,31,05,09,8.70
2012,08,31,05,10,8.70
2012,08,31,05,11,8.70
2012,08,31,05,12,8.60
2012,08,31,05,13,8.60
2012,08,31,05,14,8.60
2012,08,31,05,15,8.60
2012,08,31,05,16,8.60
2012,08,31,05,17,8.60
2012,08,31,05,18,8.60
2012,08,31,05,19,8.60
2012,08,31,05,20,8.60
2012,08,31,05,21,8.60
2012,08,31,05,22,8.50
2012,08,31,05,23,8.50
2012,08,31,05,24,8.50
2012,08,31,05,25,8.50
2012,08,31,05,26,8.50
2012,08,31,05,27,8.50
2012,08,31,05,28,8.50
2012,08,31,05,29,8.50
2012,08,31,05,30,8.50
2012,08,31,05,31,8.50
2012,08,31,05,32,8.50
2012,08,31,05,33,8.50
2012,08,31,05,34,8.50
2012,08,31,05,35,8.50
2012,08,31,05,36,8.60
2012,08,31,05,37,8.60
2012,08,31,05,38,8.60
2012,08,31,05,39,8.50
2012,08,31,05,40,8.50
2012,08,31,05,41,8.50
2012,08,31,05,42,8.50
2012,08,31,05,43,8.50
2012,08,31,05,44,8.50
2012,08,31,05,45,8.50
2012,08,31,05,46,8.50
2012,08,31,05,47,8.50
2012,08,31,05,48,8.50
2012,08,31,05,49,8.40
2012,08,31,05,50,8.40
2012,08,31,05,51,8.40
2012,08,31,05,52,8.40
2012,08,31,05,53,8.40
2012,08,31,05,54,8.40
2012,08,31,05,55,8.40
2012,08,31,05,56,8.40
2012,08,31,05,57,8.40
2012,08,31,05,58,8.30
2012,08,31,05,59,8.30
2012,08,31,06,00,8.30
2012,08,31,06,01,8.30
2012,08,31,06,02,8.30
2012,08,31,06,03,8.30
2012,08,31,06,04,8.30
2012,08,31,06,05,8.30
2012,08,31,06,06,8.30
2012,08,31,06,07,8.30
2012,08,31,06,08,8.30
2012,08,31,06,09,8.30
2012,08,31,06,10,8.30
2012,08,31,06,11,8.30
2012,08,31,06,12,8.30
2012,08,31,06,13,8.30
2012,08,31,06,14,8.30
2012,08,31,06,15,8.30
2012,08,31,06,16,8.30
2012,08,31,06,17,8.20
2012,08,31,06,18,8.20
2012,08,31,06,19,8.30
2012,08,31,06,20,8.20
2012,08,31,06,21,8.20
2012,08,31,06,22,8.20
2012,08,31,06,23,8.20
2012,08,31,06,24,8.20
2012,08,31,06,25,8.20
2012,08,31,06,26,8.20
2012,08,31,06,27,8.20
2012,08,31,06,28,8.20
2012,08,31,06,29,8.20
2012,08,31,06,30,8.20
2012,08,31,06,31,8.20
2012,08,31,06,32,8.20
2012,08,31,06,33,8.20
2012,08,31,06,34,8.20
2012,08,31,06,35,8.10
2012,08,31,06,36,8.10
2012,08,31,06,37,8.10
2012,08,31,06,38,8.10
2012,08,31,06,39,8.10
2012,08,31,06,40,8.10
2012,08,31,06,41,8.10
2012,08,31,06,42,8.10
2012,08,31,06,43,8.10
2012,08,31,06,44,8.10
2012,08,31,06,45,8.10
2012,08,31,06,46,8.10
2012,08,31,06,47,8.10
2012,08,31,06,48,8.10
2012,08,31,06,49,8.10
2012,08,31,06,50,8.10
2012,08,31,06,51,8.10
2012,08,31,06,52,8.10
2012,08,31,06,53,8.10
2012,08,31,06,54,8.10
2012,08,31,06,55,8.20
2012,08,31,06,56,8.20
2012,08,31,06,57,8.20
2012,08,31,06,58,8.20
2012,08,31,06,59,8.20
2012,08,31,07,00,8.20
2012,08,31,07,01,8.20
2012,08,31,07,02,8.20
2012,08,31,07,03,8.30
2012,08,31,07,04,8.30
2012,08,31,07,05,8.30
2012,08,31,07,06,8.30
2012,08,31,07,07,8.30
2012,08,31,07,08,8.30
2012,08,31,07,09,8.30
2012,08,31,07,10,8.30
2012,08,31,07,11,8.30
2012,08,31,07,12,8.40
2012,08,31,07,13,8.40
2012,08,31,07,14,8.40
2012,08,31,07,15,8.50
2012,08,31,07,16,8.50
2012,08,31,07,17,8.60
2012,08,31,07,18,8.70
2012,08,31,07,19,8.70
2012,08,31,07,20,8.80
2012,08,31,07,21,8.80
2012,08,31,07,22,8.90
2012,08,31,07,23,8.90
2012,08,31,07,24,9.00
2012,08,31,07,25,9.10
2012,08,31,07,26,9.10
2012,08,31,07,27,9.10
2012,08,31,07,28,9.20
2012,08,31,07,29,9.30
2012,08,31,07,30,9.30
2012,08,31,07,31,9.40
2012,08,31,07,32,9.40
2012,08,31,07,33,9.50
2012,08,31,07,34,9.60
2012,08,31,07,35,9.70
2012,08,31,07,36,9.80
2012,08,31,07,37,9.90
2012,08,31,07,38,10.00
2012,08,31,07,39,10.00
2012,08,31,07,40,10.10
2012,08,31,07,41,10.20
2012,08,31,07,42,10.30
2012,08,31,07,43,10.40
2012,08,31,07,44,10.50
2012,08,31,07,45,10.60
2012,08,31,07,46,10.70
2012,08,31,07,47,10.70
2012,08,31,07,48,10.80
2012,08,31,07,49,10.80
2012,08,31,07,50,10.90
2012,08,31,07,51,11.00
2012,08,31,07,52,11.00
2012,08,31,07,53,11.10
2012,08,31,07,54,11.10
2012,08,31,07,55,11.10
2012,08,31,07,56,11.20
2012,08,31,07,57,11.20
2012,08,31,07,58,11.30
2012,08,31,07,59,11.30
2012,08,31,08,00,11.40
2012,08,31,08,01,11.40
2012,08,31,08,02,11.40
2012,08,31,08,03,11.50
2012,08,31,08,04,11.50
2012,08,31,08,05,11.60
2012,08,31,08,06,11.60
2012,08,31,08,07,11.70
2012,08,31,08,08,11.70
2012,08,31,08,09,11.70
2012,08,31,08,10,11.70
2012,08,31,08,11,11.70
2012,08,31,08,12,11.70
2012,08,31,08,13,11.70
2012,08,31,08,14,11.70
2012,08,31,08,15,11.70
2012,08,31,08,16,11.70
2012,08,31,08,17,11.70
2012,08,31,08,18,11.70
2012,08,31,08,19,11.70
2012,08,31,08,20,11.70
2012,08,31,08,21,11.70
2012,08,31,08,22,11.70
2012,08,31,08,23,11.70
2012,08,31,08,24,11.80
2012,08,31,08,25,11.80
2012,08,31,08,26,11.80
2012,08,31,08,27,11.80
2012,08,31,08,28,11.80
2012,08,31,08,29,11.80
2012,08,31,08,30,11.80
2012,08,31,08,31,11.80
2012,08,31,08,32,11.80
2012,08,31,08,33,11.80
2012,08,31,08,34,11.80
2012,08,31,08,35,11.80
2012,08,31,08,36,11.80
2012,08,31,08,37,11.80
2012,08,31,08,38,11.80
2012,08,31,08,39,11.80
2012,08,31,08,40,11.80
2012,08,31,08,41,11.80
2012,08,31,08,42,11.70
2012,08,31,08,43,11.70
2012,08,31,08,44,11.70
2012,08,31,08,45,11.70
2012,08,31,08,46,11.70
2012,08,31,08,47,11.70
2012,08,31,08,48,11.70
2012,08,31,08,49,11.70
2012,08,31,08,50,11.70
2012,08,31,08,51,11.80
2012,08,31,08,52,11.80
2012,08,31,08,53,11.80
2012,08,31,08,54,11.90
2012,08,31,08,55,11.90
2012,08,31,08,56,12.00
2012,08,31,08,57,12.00
2012,08,31,08,58,12.10
2012,08,31,08,59,12.20
2012,08,31,09,00,12.30
2012,08,31,09,01,12.30
2012,08,31,09,02,12.40
2012,08,31,09,03,12.50
2012,08,31,09,04,12.50
2012,08,31,09,05,12.60
2012,08,31,09,06,12.60
2012,08,31,09,07,12.70
2012,08,31,09,08,12.70
2012,08,31,09,09,12.80
2012,08,31,09,10,12.80
2012,08,31,09,11,12.90
2012,08,31,09,12,13.00
2012,08,31,09,13,13.10
2012,08,31,09,14,13.10
2012,08,31,09,15,13.20
2012,08,31,09,16,13.30
2012,08,31,09,17,13.40
2012,08,31,09,18,13.50
2012,08,31,09,19,13.60
2012,08,31,09,20,13.60
2012,08,31,09,21,13.70
2012,08,31,09,22,13.70
2012,08,31,09,23,13.70
2012,08,31,09,24,13.80
2012,08,31,09,25,13.80
2012,08,31,09,26,13.90
2012,08,31,09,27,14.00
2012,08,31,09,28,14.00
2012,08,31,09,29,14.20
2012,08,31,09,30,14.20
2012,08,31,09,31,14.30
2012,08,31,09,32,14.40
2012,08,31,09,33,14.40
2012,08,31,09,34,14.50
2012,08,31,09,35,14.60
2012,08,31,09,36,14.70
2012,08,31,09,37,14.70
2012,08,31,09,38,14.80
2012,08,31,09,39,14.80
2012,08,31,09,40,14.80
2012,08,31,09,41,14.80
2012,08,31,09,42,14.80
2012,08,31,09,43,14.70
2012,08,31,09,44,14.70
2012,08,31,09,45,14.70
2012,08,31,09,46,14.60
2012,08,31,09,47,14.60
2012,08,31,09,48,14.50
2012,08,31,09,49,14.50
2012,08,31,09,50,14.40
2012,08,31,09,51,14.40
2012,08,31,09,52,14.40
2012,08,31,09,53,14.30
2012,08,31,09,54,14.30
2012,08,31,09,55,14.30
2012,08,31,09,56,14.20
2012,08,31,09,57,14.20
2012,08,31,09,58,14.10
2012,08,31,09,59,14.10
2012,08,31,10,00,14.10
2012,08,31,10,01,14.00
2012,08,31,10,02,14.00
2012,08,31,10,03,14.00
2012,08,31,10,04,13.90
2012,08,31,10,05,13.90
2012,08,31,10,06,13.90
2012,08,31,10,07,13.90
2012,08,31,10,08,14.00
2012,08,31,10,09,14.00
2012,08,31,10,10,14.00
2012,08,31,10,11,14.10
2012,08,31,10,12,14.10
2012,08,31,10,13,14.10
2012,08,31,10,14,14.20
2012,08,31,10,15,14.20
2012,08,31,10,16,14.20
2012,08,31,10,17,14.20
2012,08,31,10,18,14.20
2012,08,31,10,19,14.30
2012,08,31,10,20,14.30
2012,08,31,10,21,14.30
2012,08,31,10,22,14.30
2012,08,31,10,23,14.40
2012,08,31,10,24,14.40
2012,08,31,10,25,14.40
2012,08,31,10,26,14.50
2012,08,31,10,27,14.50
2012,08,31,10,28,14.50
2012,08,31,10,29,14.50
2012,08,31,10,30,14.60
2012,08,31,10,31,14.60
2012,08,31,10,32,14.60
2012,08,31,10,33,14.70
2012,08,31,10,34,14.70
2012,08,31,10,35,14.70
2012,08,31,10,36,14.70
2012,08,31,10,37,14.80
2012,08,31,10,38,14.80
2012,08,31,10,39,14.90
2012,08,31,10,40,15.00
2012,08,31,10,41,15.10
2012,08,31,10,42,15.20
2012,08,31,10,43,15.30
2012,08,31,10,44,15.40
2012,08,31,10,45,15.50
2012,08,31,10,46,15.70
2012,08,31,10,47,15.70
2012,08,31,10,48,15.80
2012,08,31,10,49,15.90
2012,08,31,10,50,16.00
2012,08,31,10,51,16.10
2012,08,31,10,52,16.20
2012,08,31,10,53,16.30
2012,08,31,10,54,16.30
2012,08,31,10,55,16.40
2012,08,31,10,56,16.40
2012,08,31,10,57,16.40
2012,08,31,10,58,16.40
2012,08,31,10,59,16.40
2012,08,31,11,00,16.40
2012,08,31,11,01,16.30
2012,08,31,11,02,16.30
2012,08,31,11,03,16.30
2012,08,31,11,04,16.30
2012,08,31,11,05,16.20
2012,08,31,11,06,16.20
2012,08,31,11,07,16.30
2012,08,31,11,08,16.30
2012,08,31,11,09,16.30
2012,08,31,11,10,16.40
2012,08,31,11,11,16.40
2012,08,31,11,12,16.50
2012,08,31,11,13,16.60
2012,08,31,11,14,16.60
2012,08,31,11,15,16.70
2012,08,31,11,16,16.70
2012,08,31,11,17,16.70
2012,08,31,11,18,16.70
2012,08,31,11,19,16.70
2012,08,31,11,20,16.80
2012,08,31,11,21,16.80
2012,08,31,11,22,16.90
2012,08,31,11,23,16.90
2012,08,31,11,24,17.00
2012,08,31,11,25,17.10
2012,08,31,11,26,17.10
2012,08,31,11,27,17.20
2012,08,31,11,28,17.30
2012,08,31,11,29,17.40
2012,08,31,11,30,17.50
2012,08,31,11,31,17.60
2012,08,31,11,32,17.60
2012,08,31,11,33,17.70
2012,08,31,11,34,17.70
2012,08,31,11,35,17.60
2012,08,31,11,36,17.60
2012,08,31,11,37,17.50
2012,08,31,11,38,17.50
2012,08,31,11,39,17.40
2012,08,31,11,40,17.40
2012,08,31,11,41,17.40
2012,08,31,11,42,17.30
2012,08,31,11,43,17.30
2012,08,31,11,44,17.20
2012,08,31,11,45,17.20
2012,08,31,11,46,17.20
2012,08,31,11,47,17.20
2012,08,31,11,48,17.20
2012,08,31,11,49,17.30
2012,08,31,11,50,17.30
2012,08,31,11,51,17.30
2012,08,31,11,52,17.30
2012,08,31,11,53,17.30
2012,08,31,11,54,17.30
2012,08,31,11,55,17.30
2012,08,31,11,56,17.30
2012,08,31,11,57,17.30
2012,08,31,11,58,17.20
2012,08,31,11,59,17.20
2012,08,31,12,00,17.20
2012,08,31,12,01,17.20
2012,08,31,12,02,17.20
2012,08,31,12,03,17.20
2012,08,31,12,04,17.20
2012,08,31,12,05,17.20
2012,08,31,12,06,17.20
2012,08,31,12,07,17.20
2012,08,31,12,08,17.10
2012,08,31,12,09,17.10
2012,08,31,12,10,17.10
2012,08,31,12,11,17.20
2012,08,31,12,12,17.20
2012,08,31,12,13,17.20
2012,08,31,12,14,17.30
2012,08,31,12,15,17.30
2012,08,31,12,16,17.40
2012,08,31,12,17,17.40
2012,08,31,12,18,17.50
2012,08,31,12,19,17.50
2012,08,31,12,20,17.50
2012,08,31,12,21,17.50
2012,08,31,12,22,17.60
2012,08,31,12,23,17.60
2012,08,31,12,24,17.60
2012,08,31,12,25,17.60
2012,08,31,12,26,17.60
2012,08,31,12,27,17.60
2012,08,31,12,28,17.50
2012,08,31,12,29,17.40
2012,08,31,12,30,17.30
2012,08,31,12,31,17.20
2012,08,31,12,32,17.20
2012,08,31,12,33,17.10
2012,08,31,12,34,17.00
2012,08,31,12,35,17.00
2012,08,31,12,36,16.90
2012,08,31,12,37,16.90
2012,08,31,12,38,16.90
2012,08,31,12,39,16.90
2012,08,31,12,40,16.90
2012,08,31,12,41,16.90
2012,08,31,12,42,16.90
2012,08,31,12,43,16.80
2012,08,31,12,44,16.80
2012,08,31,12,45,16.80
2012,08,31,12,46,16.70
2012,08,31,12,47,16.80
2012,08,31,12,48,16.80
2012,08,31,12,49,16.80
2012,08,31,12,50,16.80
2012,08,31,12,51,16.80
2012,08,31,12,52,16.80
2012,08,31,12,53,16.80
2012,08,31,12,54,16.70
2012,08,31,12,55,16.60
2012,08,31,12,56,16.60
2012,08,31,12,57,16.60
2012,08,31,12,58,16.50
2012,08,31,12,59,16.50
2012,08,31,13,00,16.50
2012,08,31,13,01,16.50
2012,08,31,13,02,16.50
2012,08,31,13,03,16.60
2012,08,31,13,04,16.60
2012,08,31,13,05,16.60
2012,08,31,13,06,16.60
2012,08,31,13,07,16.70
2012,08,31,13,08,16.70
2012,08,31,13,09,16.70
2012,08,31,13,10,16.70
2012,08,31,13,11,16.70
2012,08,31,13,12,16.70
2012,08,31,13,13,16.70
2012,08,31,13,14,16.70
2012,08,31,13,15,16.70
2012,08,31,13,16,16.70
2012,08,31,13,17,16.70
2012,08,31,13,18,16.70
2012,08,31,13,19,16.70
2012,08,31,13,20,16.70
2012,08,31,13,21,16.70
2012,08,31,13,22,16.70
2012,08,31,13,23,16.70
2012,08,31,13,24,16.70
2012,08,31,13,25,16.60
2012,08,31,13,26,16.70
2012,08,31,13,27,16.70
2012,08,31,13,28,16.70
2012,08,31,13,29,16.70
2012,08,31,13,30,16.80
2012,08,31,13,31,16.90
2012,08,31,13,32,17.00
2012,08,31,13,33,17.10
2012,08,31,13,34,17.10
2012,08,31,13,35,17.20
2012,08,31,13,36,17.20
2012,08,31,13,37,17.10
2012,08,31,13,38,17.10
2012,08,31,13,39,17.00
2012,08,31,13,40,17.00
2012,08,31,13,41,17.00
2012,08,31,13,42,17.00
2012,08,31,13,43,17.00
2012,08,31,13,44,17.00
2012,08,31,13,45,17.10
2012,08,31,13,46,17.10
2012,08,31,13,47,17.00
2012,08,31,13,48,16.90
2012,08,31,13,49,16.80
2012,08,31,13,50,16.70
2012,08,31,13,51,16.60
2012,08,31,13,52,16.50
2012,08,31,13,53,16.50
2012,08,31,13,54,16.40
2012,08,31,13,55,16.40
2012,08,31,13,56,16.30
2012,08,31,13,57,16.30
2012,08,31,13,58,16.30
2012,08,31,13,59,16.30
2012,08,31,14,00,16.40
2012,08,31,14,01,16.40
2012,08,31,14,02,16.40
2012,08,31,14,03,16.40
2012,08,31,14,04,16.40
2012,08,31,14,05,16.40
2012,08,31,14,06,16.50
2012,08,31,14,07,16.50
2012,08,31,14,08,16.60
2012,08,31,14,09,16.60
2012,08,31,14,10,16.60
2012,08,31,14,11,16.60
2012,08,31,14,12,16.60
2012,08,31,14,13,16.60
2012,08,31,14,14,16.60
2012,08,31,14,15,16.70
2012,08,31,14,16,16.70
2012,08,31,14,17,16.60
2012,08,31,14,18,16.60
2012,08,31,14,19,16.60
2012,08,31,14,20,16.70
2012,08,31,14,21,16.70
2012,08,31,14,22,16.80
2012,08,31,14,23,16.90
2012,08,31,14,24,17.00
2012,08,31,14,25,17.10
2012,08,31,14,26,17.20
2012,08,31,14,27,17.20
2012,08,31,14,28,17.30
2012,08,31,14,29,17.40
2012,08,31,14,30,17.40
2012,08,31,14,31,17.40
2012,08,31,14,32,17.50
2012,08,31,14,33,17.60
2012,08,31,14,34,17.60
2012,08,31,14,35,17.60
2012,08,31,14,36,17.60
2012,08,31,14,37,17.70
2012,08,31,14,38,17.80
2012,08,31,14,39,17.80
2012,08,31,14,40,17.90
2012,08,31,14,41,17.90
2012,08,31,14,42,17.90
2012,08,31,14,43,17.90
2012,08,31,14,44,17.90
2012,08,31,14,45,17.90
2012,08,31,14,46,17.90
2012,08,31,14,47,17.90
2012,08,31,14,48,18.00
2012,08,31,14,49,17.90
2012,08,31,14,50,17.90
2012,08,31,14,51,17.80
2012,08,31,14,52,17.60
2012,08,31,14,53,17.50
2012,08,31,14,54,17.40
2012,08,31,14,55,17.30
2012,08,31,14,56,17.20
2012,08,31,14,57,17.20
2012,08,31,14,58,17.20
2012,08,31,14,59,17.20
2012,08,31,15,00,17.30
2012,08,31,15,01,17.30
2012,08,31,15,02,17.20
2012,08,31,15,03,17.10
2012,08,31,15,04,17.10
2012,08,31,15,05,17.10
2012,08,31,15,06,17.10
2012,08,31,15,07,17.10
2012,08,31,15,08,17.10
2012,08,31,15,09,17.10
2012,08,31,15,10,17.10
2012,08,31,15,11,17.10
2012,08,31,15,12,17.10
2012,08,31,15,13,17.10
2012,08,31,15,14,17.10
2012,08,31,15,15,17.00
2012,08,31,15,16,17.10
2012,08,31,15,17,17.10
2012,08,31,15,18,17.10
2012,08,31,15,19,17.10
2012,08,31,15,20,17.10
2012,08,31,15,21,17.10
2012,08,31,15,22,17.20
2012,08,31,15,23,17.20
2012,08,31,15,24,17.20
2012,08,31,15,25,17.20
2012,08,31,15,26,17.20
2012,08,31,15,27,17.10
2012,08,31,15,28,17.10
2012,08,31,15,29,17.00
2012,08,31,15,30,17.00
2012,08,31,15,31,17.00
2012,08,31,15,32,17.00
2012,08,31,15,33,17.10
2012,08,31,15,34,17.10
2012,08,31,15,35,17.10
2012,08,31,15,36,17.10
2012,08,31,15,37,17.20
2012,08,31,15,38,17.20
2012,08,31,15,39,17.30
2012,08,31,15,40,17.30
2012,08,31,15,41,17.40
2012,08,31,15,42,17.30
2012,08,31,15,43,17.30
2012,08,31,15,44,17.30
2012,08,31,15,45,17.30
2012,08,31,15,46,17.30
2012,08,31,15,47,17.30
2012,08,31,15,48,17.40
2012,08,31,15,49,17.40
2012,08,31,15,50,17.50
2012,08,31,15,51,17.60
2012,08,31,15,52,17.70
2012,08,31,15,53,17.70
2012,08,31,15,54,17.70
2012,08,31,15,55,17.80
2012,08,31,15,56,17.80
2012,08,31,15,57,17.70
2012,08,31,15,58,17.60
2012,08,31,15,59,17.60
2012,08,31,16,00,17.60
2012,08,31,16,01,17.50
2012,08,31,16,02,17.50
2012,08,31,16,03,17.40
2012,08,31,16,04,17.40
2012,08,31,16,05,17.30
2012,08,31,16,06,17.30
2012,08,31,16,07,17.40
2012,08,31,16,08,17.40
2012,08,31,16,09,17.40
2012,08,31,16,10,17.40
2012,08,31,16,11,17.30
2012,08,31,16,12,17.30
2012,08,31,16,13,17.30
2012,08,31,16,14,17.30
2012,08,31,16,15,17.20
2012,08,31,16,16,17.20
2012,08,31,16,17,17.20
2012,08,31,16,18,17.20
2012,08,31,16,19,17.20
2012,08,31,16,20,17.10
2012,08,31,16,21,17.10
2012,08,31,16,22,17.10
2012,08,31,16,23,17.10
2012,08,31,16,24,17.10
2012,08,31,16,25,17.10
2012,08,31,16,26,17.10
2012,08,31,16,27,17.10
2012,08,31,16,28,17.10
2012,08,31,16,29,17.00
2012,08,31,16,30,17.00
2012,08,31,16,31,16.90
2012,08,31,16,32,16.90
2012,08,31,16,33,17.00
2012,08,31,16,34,17.00
2012,08,31,16,35,17.00
2012,08,31,16,36,17.10
2012,08,31,16,37,17.10
2012,08,31,16,38,17.20
2012,08,31,16,39,17.20
2012,08,31,16,40,17.20
2012,08,31,16,41,17.20
2012,08,31,16,42,17.20
2012,08,31,16,43,17.20
2012,08,31,16,44,17.20
2012,08,31,16,45,17.20
2012,08,31,16,46,17.20
2012,08,31,16,47,17.20
2012,08,31,16,48,17.20
2012,08,31,16,49,17.10
2012,08,31,16,50,17.10
2012,08,31,16,51,17.10
2012,08,31,16,52,17.10
2012,08,31,16,53,17.10
2012,08,31,16,54,17.10
2012,08,31,16,55,17.10
2012,08,31,16,56,17.10
2012,08,31,16,57,17.10
2012,08,31,16,58,17.10
2012,08,31,16,59,17.10
2012,08,31,17,00,17.10
2012,08,31,17,01,17.10
2012,08,31,17,02,17.10
2012,08,31,17,03,17.20
2012,08,31,17,04,17.20
2012,08,31,17,05,17.20
2012,08,31,17,06,17.20
2012,08,31,17,07,17.20
2012,08,31,17,08,17.20
2012,08,31,17,09,17.10
2012,08,31,17,10,17.10
2012,08,31,17,11,17.10
2012,08,31,17,12,17.10
2012,08,31,17,13,17.10
2012,08,31,17,14,17.20
2012,08,31,17,15,17.20
2012,08,31,17,16,17.20
2012,08,31,17,17,17.20
2012,08,31,17,18,17.20
2012,08,31,17,19,17.20
2012,08,31,17,20,17.20
2012,08,31,17,21,17.20
2012,08,31,17,22,17.20
2012,08,31,17,23,17.20
2012,08,31,17,24,17.20
2012,08,31,17,25,17.20
2012,08,31,17,26,17.10
2012,08,31,17,27,17.10
2012,08,31,17,28,17.10
2012,08,31,17,29,17.10
2012,08,31,17,30,17.10